TimePDT,TemperatureF,Dew PointF,Humidity,Sea Level PressureIn,VisibilityMPH,Wind Direction,Wind SpeedMPH,Gust SpeedMPH,PrecipitationIn,Events,Conditions,WindDirDegrees,DateUTC
12:53 AM,48.9,27.0,43,29.60,10.0,South,12.7,-,N/A,,Clear,180,2012-10-21 07:53:00
1:53 AM,45.0,28.0,52,29.62,10.0,South,10.4,-,N/A,,Clear,190,2012-10-21 08:53:00
2:53 AM,45.0,28.0,52,29.61,10.0,SSW,13.8,-,N/A,,Clear,210,2012-10-21 09:53:00
3:53 AM,46.9,28.0,48,29.61,10.0,SW,13.8,-,N/A,,Clear,220,2012-10-21 10:53:00
4:53 AM,44.1,28.9,55,29.63,10.0,South,6.9,-,N/A,,Clear,180,2012-10-21 11:53:00
5:53 AM,37.9,28.0,68,29.70,10.0,Calm,Calm,-,N/A,,Clear,0,2012-10-21 12:53:00
6:53 AM,37.0,28.0,70,29.76,10.0,South,5.8,-,N/A,,Clear,170,2012-10-21 13:53:00
7:53 AM,42.1,30.0,62,29.75,10.0,Calm,Calm,-,N/A,,Clear,0,2012-10-21 14:53:00
8:53 AM,53.1,32.0,45,29.68,10.0,SSW,9.2,-,N/A,,Clear,200,2012-10-21 15:53:00
9:53 AM,57.9,32.0,37,29.66,10.0,SSE,10.4,-,N/A,,Clear,160,2012-10-21 16:53:00
10:53 AM,62.1,30.9,31,29.64,10.0,South,12.7,16.1,N/A,,Clear,180,2012-10-21 17:53:00
11:53 AM,64.0,26.1,24,29.62,10.0,SW,12.7,20.7,N/A,,Clear,230,2012-10-21 18:53:00
12:53 PM,64.0,26.1,24,29.61,10.0,SW,11.5,21.9,N/A,,Partly Cloudy,230,2012-10-21 19:53:00
1:53 PM,64.0,28.0,26,29.62,10.0,South,16.1,24.2,N/A,,Partly Cloudy,190,2012-10-21 20:53:00
2:53 PM,64.0,27.0,25,29.61,10.0,South,10.4,-,N/A,,Mostly Cloudy,190,2012-10-21 21:53:00
3:53 PM,63.0,28.0,27,29.61,10.0,South,10.4,19.6,N/A,,Scattered Clouds,180,2012-10-21 22:53:00
4:53 PM,61.0,30.9,32,29.62,10.0,SSW,11.5,19.6,N/A,,Clear,200,2012-10-21 23:53:00
5:53 PM,57.0,30.9,37,29.67,10.0,South,6.9,-,N/A,,Partly Cloudy,180,2012-10-22 00:53:00
6:53 PM,57.0,33.1,40,29.68,10.0,South,15.0,19.6,N/A,,Overcast,180,2012-10-22 01:53:00
7:53 PM,57.0,35.1,44,29.66,10.0,South,15.0,-,N/A,,Unknown,180,2012-10-22 02:53:00
8:53 PM,52.0,34.0,50,29.64,10.0,SSE,11.5,-,N/A,,Overcast,150,2012-10-22 03:53:00
9:53 PM,51.1,35.1,54,29.61,10.0,South,15.0,20.7,N/A,,Scattered Clouds,170,2012-10-22 04:53:00
10:53 PM,51.1,36.0,56,29.60,10.0,SE,16.1,24.2,N/A,,Clear,130,2012-10-22 05:53:00
11:53 PM,50.0,36.0,59,29.61,10.0,SSE,12.7,-,N/A,,Mostly Cloudy,160,2012-10-22 06:53:00